Time,TemperatureF,DewpointF,PressureIn,WindDirection,WindDirectionDegrees,WindSpeedMPH,WindSpeedGustMPH,Humidity,HourlyPrecipIn,Conditions,Clouds,dailyrainin,SoftwareType,DateUTC
2013-05-13 00:01:00,58.7,47.5,27.38,NNW,337,1.4,3.0,66,0.00,,,0.00,Rainwise IP-100,2013-05-13 07:01:00,
2013-05-13 00:06:00,58.6,47.5,27.37,NNW,337,2.6,3.0,65,0.00,,,0.00,Rainwise IP-100,2013-05-13 07:06:00,
2013-05-13 00:11:00,58.5,47.5,27.37,North,360,2.8,3.5,65,0.00,,,0.00,Rainwise IP-100,2013-05-13 07:11:00,
2013-05-13 00:16:00,58.7,47.5,27.37,North,360,2.6,3.3,65,0.00,,,0.00,Rainwise IP-100,2013-05-13 07:16:00,
2013-05-13 00:22:00,58.6,47.5,27.37,North,360,3.3,4.0,65,0.00,,,0.00,Rainwise IP-100,2013-05-13 07:22:00,
2013-05-13 00:27:00,58.5,47.5,27.37,North,360,3.7,4.0,65,0.00,,,0.00,Rainwise IP-100,2013-05-13 07:27:00,
2013-05-13 00:32:00,58.6,47.5,27.36,North,360,2.6,4.0,65,0.00,,,0.00,Rainwise IP-100,2013-05-13 07:32:00,
2013-05-13 00:37:00,58.8,47.0,27.36,NNE,22,2.1,4.2,64,0.00,,,0.00,Rainwise IP-100,2013-05-13 07:37:00,
2013-05-13 00:42:00,58.7,47.0,27.36,NNE,22,3.0,3.7,64,0.00,,,0.00,Rainwise IP-100,2013-05-13 07:42:00,
2013-05-13 00:47:00,58.7,47.0,27.36,NNW,337,3.5,4.0,64,0.00,,,0.00,Rainwise IP-100,2013-05-13 07:47:00,
2013-05-13 00:52:00,58.9,47.0,27.36,NNW,337,2.3,3.7,64,0.00,,,0.00,Rainwise IP-100,2013-05-13 07:52:00,
2013-05-13 00:57:00,58.8,47.0,27.36,North,360,2.6,3.3,64,0.00,,,0.00,Rainwise IP-100,2013-05-13 07:57:00,
2013-05-13 01:02:00,58.5,47.5,27.36,North,360,2.8,3.3,65,0.00,,,0.00,Rainwise IP-100,2013-05-13 08:02:00,
2013-05-13 01:07:00,58.3,47.0,27.36,North,360,2.3,3.3,65,0.00,,,0.00,Rainwise IP-100,2013-05-13 08:07:00,
2013-05-13 01:12:00,58.3,47.0,27.36,North,360,0.0,3.3,65,0.00,,,0.00,Rainwise IP-100,2013-05-13 08:12:00,
2013-05-13 01:17:00,58.5,47.0,27.36,NNW,337,0.0,2.8,64,0.00,,,0.00,Rainwise IP-100,2013-05-13 08:17:00,
2013-05-13 01:23:00,58.6,47.5,27.36,NNW,337,0.0,3.0,65,0.00,,,0.00,Rainwise IP-100,2013-05-13 08:23:00,
2013-05-13 01:28:00,58.6,47.5,27.36,NNW,337,1.4,1.6,65,0.00,,,0.00,Rainwise IP-100,2013-05-13 08:28:00,
2013-05-13 01:33:00,58.3,46.0,27.36,NNW,337,0.0,2.3,64,0.00,,,0.00,Rainwise IP-100,2013-05-13 08:33:00,
2013-05-13 01:38:00,58.3,46.0,27.36,NNE,22,1.2,1.9,64,0.00,,,0.00,Rainwise IP-100,2013-05-13 08:38:00,
2013-05-13 01:43:00,58.4,46.0,27.36,NNE,22,0.0,1.2,63,0.00,,,0.00,Rainwise IP-100,2013-05-13 08:43:00,
2013-05-13 01:48:00,58.2,46.0,27.35,NNE,22,1.4,1.4,63,0.00,,,0.00,Rainwise IP-100,2013-05-13 08:48:00,
2013-05-13 01:53:00,57.9,46.0,27.35,NNE,22,0.0,1.6,64,0.00,,,0.00,Rainwise IP-100,2013-05-13 08:53:00,
2013-05-13 01:58:00,57.8,46.0,27.35,NNE,22,1.4,1.6,64,0.00,,,0.00,Rainwise IP-100,2013-05-13 08:58:00,
2013-05-13 02:03:00,57.6,45.0,27.35,NNE,22,0.0,1.6,63,0.00,,,0.00,Rainwise IP-100,2013-05-13 09:03:00,
2013-05-13 02:08:00,57.5,45.0,27.35,NNE,22,0.0,1.6,63,0.00,,,0.00,Rainwise IP-100,2013-05-13 09:08:00,
2013-05-13 02:13:00,57.4,45.0,27.35,NNE,22,2.1,2.1,63,0.00,,,0.00,Rainwise IP-100,2013-05-13 09:13:00,
2013-05-13 02:18:00,57.5,45.0,27.35,NNE,22,2.1,2.3,62,0.00,,,0.00,Rainwise IP-100,2013-05-13 09:18:00,
2013-05-13 02:24:00,57.7,44.0,27.36,NNE,22,1.9,2.1,61,0.00,,,0.00,Rainwise IP-100,2013-05-13 09:24:00,
2013-05-13 02:29:00,57.8,45.0,27.35,NNE,22,1.6,2.3,61,0.00,,,0.00,Rainwise IP-100,2013-05-13 09:29:00,
2013-05-13 02:34:00,57.8,44.0,27.36,NNE,22,1.2,2.6,60,0.00,,,0.00,Rainwise IP-100,2013-05-13 09:34:00,
2013-05-13 02:39:00,57.8,44.0,27.35,NNE,22,0.0,1.6,60,0.00,,,0.00,Rainwise IP-100,2013-05-13 09:39:00,
2013-05-13 02:44:00,57.8,44.0,27.35,NNE,22,0.0,1.2,60,0.00,,,0.00,Rainwise IP-100,2013-05-13 09:44:00,
2013-05-13 02:49:00,57.8,44.0,27.35,NNE,22,0.0,0.0,59,0.00,,,0.00,Rainwise IP-100,2013-05-13 09:49:00,
2013-05-13 02:54:00,57.7,43.0,27.35,NNE,22,1.4,2.1,58,0.00,,,0.00,Rainwise IP-100,2013-05-13 09:54:00,
2013-05-13 02:59:00,57.5,43.0,27.35,NNE,22,0.0,1.9,58,0.00,,,0.00,Rainwise IP-100,2013-05-13 09:59:00,
2013-05-13 03:04:00,57.6,43.0,27.35,North,360,1.6,2.6,58,0.00,,,0.00,Rainwise IP-100,2013-05-13 10:04:00,
2013-05-13 03:09:00,57.9,43.0,27.35,North,360,1.9,2.6,57,0.00,,,0.00,Rainwise IP-100,2013-05-13 10:09:00,
2013-05-13 03:14:00,58.1,43.0,27.36,North,360,0.0,2.1,57,0.00,,,0.00,Rainwise IP-100,2013-05-13 10:14:00,
2013-05-13 03:19:00,57.8,43.0,27.35,North,360,1.4,2.3,58,0.00,,,0.00,Rainwise IP-100,2013-05-13 10:19:00,
2013-05-13 03:25:00,57.5,43.0,27.35,North,360,2.3,2.6,58,0.00,,,0.00,Rainwise IP-100,2013-05-13 10:25:00,
2013-05-13 03:30:00,57.6,42.0,27.35,North,360,0.0,2.6,57,0.00,,,0.00,Rainwise IP-100,2013-05-13 10:30:00,
2013-05-13 03:35:00,57.7,42.0,27.35,North,360,2.3,2.6,57,0.00,,,0.00,Rainwise IP-100,2013-05-13 10:35:00,
2013-05-13 03:40:00,57.7,42.0,27.35,North,360,1.2,2.6,57,0.00,,,0.00,Rainwise IP-100,2013-05-13 10:40:00,
2013-05-13 03:45:00,57.9,43.0,27.35,North,360,1.9,2.3,58,0.00,,,0.00,Rainwise IP-100,2013-05-13 10:45:00,
2013-05-13 03:50:00,58.1,43.0,27.35,NNW,337,2.8,3.0,58,0.00,,,0.00,Rainwise IP-100,2013-05-13 10:50:00,
2013-05-13 03:55:00,58.2,43.0,27.35,NNW,337,3.3,3.5,58,0.00,,,0.00,Rainwise IP-100,2013-05-13 10:55:00,
2013-05-13 04:00:00,58.4,42.0,27.35,NNW,337,2.8,3.5,56,0.00,,,0.00,Rainwise IP-100,2013-05-13 11:00:00,
2013-05-13 04:05:00,58.5,43.0,27.35,NNW,337,3.3,3.5,55,0.00,,,0.00,Rainwise IP-100,2013-05-13 11:05:00,
2013-05-13 04:10:00,58.4,42.0,27.35,NNW,337,2.8,3.5,55,0.00,,,0.00,Rainwise IP-100,2013-05-13 11:10:00,
2013-05-13 04:16:00,58.3,42.0,27.35,NNW,337,2.8,3.3,55,0.00,,,0.00,Rainwise IP-100,2013-05-13 11:16:00,
2013-05-13 04:21:00,58.2,42.0,27.35,NNW,337,2.6,3.3,55,0.00,,,0.00,Rainwise IP-100,2013-05-13 11:21:00,
2013-05-13 04:26:00,58.1,42.0,27.36,NNW,337,2.3,3.3,55,0.00,,,0.00,Rainwise IP-100,2013-05-13 11:26:00,
2013-05-13 04:31:00,57.8,42.0,27.36,NNW,337,2.3,3.3,56,0.00,,,0.00,Rainwise IP-100,2013-05-13 11:31:00,
2013-05-13 04:36:00,57.5,42.0,27.35,NNW,337,2.1,3.5,56,0.00,,,0.00,Rainwise IP-100,2013-05-13 11:36:00,
2013-05-13 04:41:00,57.4,42.0,27.35,NNW,337,2.6,3.0,57,0.00,,,0.00,Rainwise IP-100,2013-05-13 11:41:00,
2013-05-13 04:46:00,57.0,42.0,27.35,NNW,337,1.6,2.8,58,0.00,,,0.00,Rainwise IP-100,2013-05-13 11:46:00,
2013-05-13 04:51:00,56.5,43.0,27.36,NNW,337,1.2,3.0,61,0.00,,,0.00,Rainwise IP-100,2013-05-13 11:51:00,
2013-05-13 04:56:00,56.2,43.0,27.35,NNW,337,0.0,2.6,62,0.00,,,0.00,Rainwise IP-100,2013-05-13 11:56:00,
2013-05-13 05:01:00,55.8,43.0,27.36,NNW,337,0.0,1.6,63,0.00,,,0.00,Rainwise IP-100,2013-05-13 12:01:00,
2013-05-13 05:06:00,55.4,43.0,27.36,NNW,337,0.0,1.6,64,0.00,,,0.00,Rainwise IP-100,2013-05-13 12:06:00,
2013-05-13 05:11:00,55.0,44.0,27.35,NNW,337,1.9,1.9,65,0.00,,,0.00,Rainwise IP-100,2013-05-13 12:11:00,
2013-05-13 05:17:00,54.6,43.0,27.36,NNW,337,2.1,2.1,66,0.00,,,0.00,Rainwise IP-100,2013-05-13 12:17:00,
2013-05-13 05:22:00,54.7,43.0,27.36,NNW,337,3.0,4.0,65,0.00,,,0.00,Rainwise IP-100,2013-05-13 12:22:00,
2013-05-13 05:27:00,55.1,43.0,27.36,NNW,337,3.0,3.7,63,0.00,,,0.00,Rainwise IP-100,2013-05-13 12:27:00,
2013-05-13 05:32:00,55.4,43.0,27.36,NNW,337,3.7,3.7,63,0.00,,,0.00,Rainwise IP-100,2013-05-13 12:32:00,
2013-05-13 05:37:00,55.4,42.0,27.36,NNW,337,3.5,4.4,62,0.00,,,0.00,Rainwise IP-100,2013-05-13 12:37:00,
2013-05-13 05:42:00,55.6,42.0,27.36,NNW,337,2.8,4.2,61,0.00,,,0.00,Rainwise IP-100,2013-05-13 12:42:00,
2013-05-13 05:47:00,55.9,42.0,27.36,NNW,337,2.8,3.7,60,0.00,,,0.00,Rainwise IP-100,2013-05-13 12:47:00,
2013-05-13 05:52:00,56.3,42.0,27.36,NNW,337,2.6,3.0,58,0.00,,,0.00,Rainwise IP-100,2013-05-13 12:52:00,
2013-05-13 05:57:00,56.9,42.0,27.36,NNW,337,3.0,3.5,57,0.00,,,0.00,Rainwise IP-100,2013-05-13 12:57:00,
2013-05-13 06:02:00,57.3,42.0,27.36,NNW,337,2.8,3.5,56,0.00,,,0.00,Rainwise IP-100,2013-05-13 13:02:00,
2013-05-13 06:07:00,57.5,42.0,27.36,NNW,337,2.8,3.5,56,0.00,,,0.00,Rainwise IP-100,2013-05-13 13:07:00,
2013-05-13 06:12:00,57.7,41.0,27.37,NNW,337,2.6,3.5,55,0.00,,,0.00,Rainwise IP-100,2013-05-13 13:12:00,
2013-05-13 06:18:00,57.8,42.0,27.37,NNW,337,3.0,3.7,55,0.00,,,0.00,Rainwise IP-100,2013-05-13 13:18:00,
2013-05-13 06:23:00,57.6,41.0,27.37,NNW,337,2.8,3.7,55,0.00,,,0.00,Rainwise IP-100,2013-05-13 13:23:00,
2013-05-13 06:28:00,57.3,42.0,27.37,NNW,337,3.5,4.2,56,0.00,,,0.00,Rainwise IP-100,2013-05-13 13:28:00,
2013-05-13 06:33:00,57.0,42.0,27.37,NNW,337,3.3,4.0,57,0.00,,,0.00,Rainwise IP-100,2013-05-13 13:33:00,
2013-05-13 06:38:00,56.6,42.0,27.37,NNW,337,3.5,4.2,59,0.00,,,0.00,Rainwise IP-100,2013-05-13 13:38:00,
2013-05-13 06:43:00,56.4,43.0,27.38,NNW,337,3.3,4.4,60,0.00,,,0.00,Rainwise IP-100,2013-05-13 13:43:00,
2013-05-13 06:48:00,56.2,43.0,27.38,NNW,337,2.8,4.0,62,0.00,,,0.00,Rainwise IP-100,2013-05-13 13:48:00,
2013-05-13 06:53:00,56.2,43.0,27.38,NNW,337,3.0,4.9,63,0.00,,,0.00,Rainwise IP-100,2013-05-13 13:53:00,
2013-05-13 06:58:00,56.4,44.0,27.38,North,360,4.2,4.9,64,0.00,,,0.00,Rainwise IP-100,2013-05-13 13:58:00,
2013-05-13 07:03:00,56.7,44.0,27.38,NNW,337,4.0,4.7,63,0.00,,,0.00,Rainwise IP-100,2013-05-13 14:03:00,
2013-05-13 07:08:00,57.2,45.0,27.37,NNW,337,3.7,4.4,63,0.00,,,0.00,Rainwise IP-100,2013-05-13 14:08:00,
2013-05-13 07:13:00,58.0,45.0,27.37,NNW,337,4.0,4.7,62,0.00,,,0.00,Rainwise IP-100,2013-05-13 14:13:00,
2013-05-13 07:19:00,58.9,45.0,27.38,NNW,337,4.0,4.7,60,0.00,,,0.00,Rainwise IP-100,2013-05-13 14:19:00,
2013-05-13 07:24:00,59.7,45.0,27.38,NNW,337,4.0,4.4,58,0.00,,,0.00,Rainwise IP-100,2013-05-13 14:24:00,
2013-05-13 07:29:00,60.5,45.0,27.38,NNW,337,3.0,4.9,57,0.00,,,0.00,Rainwise IP-100,2013-05-13 14:29:00,
2013-05-13 07:34:00,61.2,45.0,27.38,NNW,337,2.8,4.4,56,0.00,,,0.00,Rainwise IP-100,2013-05-13 14:34:00,
2013-05-13 07:39:00,62.2,47.0,27.38,NNW,337,3.0,3.7,57,0.00,,,0.00,Rainwise IP-100,2013-05-13 14:39:00,
2013-05-13 07:44:00,63.4,47.5,27.38,NNW,337,0.0,3.7,56,0.00,,,0.00,Rainwise IP-100,2013-05-13 14:44:00,
2013-05-13 07:49:00,64.5,48.0,27.38,NNW,337,0.0,2.8,55,0.00,,,0.00,Rainwise IP-100,2013-05-13 14:49:00,
2013-05-13 07:54:00,65.2,49.0,27.37,NNW,337,0.0,4.0,57,0.00,,,0.00,Rainwise IP-100,2013-05-13 14:54:00,
2013-05-13 07:59:00,65.9,50.0,27.38,NNW,337,0.0,4.0,56,0.00,,,0.00,Rainwise IP-100,2013-05-13 14:59:00,
2013-05-13 08:04:00,67.2,50.0,27.37,NNW,337,0.0,2.3,53,0.00,,,0.00,Rainwise IP-100,2013-05-13 15:04:00,
2013-05-13 08:09:00,69.1,50.0,27.37,NNW,337,0.0,3.3,50,0.00,,,0.00,Rainwise IP-100,2013-05-13 15:09:00,
2013-05-13 08:14:00,70.9,50.0,27.38,NNW,337,0.0,3.5,48,0.00,,,0.00,Rainwise IP-100,2013-05-13 15:14:00,
2013-05-13 08:20:00,71.2,52.0,27.37,North,360,1.4,3.3,50,0.00,,,0.00,Rainwise IP-100,2013-05-13 15:20:00,
2013-05-13 08:25:00,71.2,52.0,27.37,NNW,337,0.0,3.7,50,0.00,,,0.00,Rainwise IP-100,2013-05-13 15:25:00,
2013-05-13 08:30:00,72.0,53.0,27.38,ESE,112,0.0,1.4,50,0.00,,,0.00,Rainwise IP-100,2013-05-13 15:30:00,
2013-05-13 08:35:00,72.8,51.0,27.38,NE,45,0.0,3.7,47,0.00,,,0.00,Rainwise IP-100,2013-05-13 15:35:00,
2013-05-13 08:40:00,73.4,50.5,27.37,ENE,67,0.0,2.3,44,0.00,,,0.00,Rainwise IP-100,2013-05-13 15:40:00,
2013-05-13 08:45:00,74.0,50.5,27.38,East,90,0.0,3.0,44,0.00,,,0.00,Rainwise IP-100,2013-05-13 15:45:00,
2013-05-13 08:50:00,74.7,50.5,27.38,NE,45,0.0,2.6,43,0.00,,,0.00,Rainwise IP-100,2013-05-13 15:50:00,
2013-05-13 08:55:00,75.0,50.5,27.38,North,360,3.5,3.7,42,0.00,,,0.00,Rainwise IP-100,2013-05-13 15:55:00,
2013-05-13 09:00:00,74.8,49.0,27.38,ESE,112,4.2,4.2,40,0.00,,,0.00,Rainwise IP-100,2013-05-13 16:00:00,
2013-05-13 09:05:00,74.9,45.0,27.38,ESE,112,0.0,8.4,34,0.00,,,0.00,Rainwise IP-100,2013-05-13 16:05:00,
2013-05-13 09:10:00,75.3,42.0,27.38,ESE,112,3.3,4.2,30,0.00,,,0.00,Rainwise IP-100,2013-05-13 16:10:00,
2013-05-13 09:15:00,75.5,41.0,27.38,SSE,157,1.2,5.4,29,0.00,,,0.00,Rainwise IP-100,2013-05-13 16:15:00,
2013-05-13 09:21:00,76.0,40.0,27.38,NNE,22,1.6,8.9,28,0.00,,,0.00,Rainwise IP-100,2013-05-13 16:21:00,
2013-05-13 09:26:00,76.0,41.0,27.38,ESE,112,2.1,6.8,29,0.00,,,0.00,Rainwise IP-100,2013-05-13 16:26:00,
2013-05-13 09:31:00,75.5,40.0,27.38,ESE,112,4.2,7.9,28,0.00,,,0.00,Rainwise IP-100,2013-05-13 16:31:00,
2013-05-13 09:36:00,75.6,39.0,27.39,ESE,112,3.7,10.3,27,0.00,,,0.00,Rainwise IP-100,2013-05-13 16:36:00,
2013-05-13 09:41:00,75.8,39.0,27.38,ENE,67,4.9,7.7,27,0.00,,,0.00,Rainwise IP-100,2013-05-13 16:41:00,
2013-05-13 09:46:00,76.1,38.0,27.39,ESE,112,2.1,7.2,26,0.00,,,0.00,Rainwise IP-100,2013-05-13 16:46:00,
2013-05-13 09:51:00,76.3,38.0,27.39,East,90,0.0,7.9,25,0.00,,,0.00,Rainwise IP-100,2013-05-13 16:51:00,
2013-05-13 09:56:00,76.8,38.0,27.39,ESE,112,3.5,4.2,25,0.00,,,0.00,Rainwise IP-100,2013-05-13 16:56:00,
2013-05-13 10:01:00,77.5,40.0,27.39,ENE,67,6.3,6.3,26,0.00,,,0.00,Rainwise IP-100,2013-05-13 17:01:00,
2013-05-13 10:06:00,77.4,42.0,27.39,ESE,112,4.7,7.2,28,0.00,,,0.00,Rainwise IP-100,2013-05-13 17:06:00,
2013-05-13 10:11:00,77.2,43.0,27.39,East,90,4.0,6.3,29,0.00,,,0.00,Rainwise IP-100,2013-05-13 17:11:00,
2013-05-13 10:16:00,77.2,44.0,27.40,WNW,292,2.8,6.8,30,0.00,,,0.00,Rainwise IP-100,2013-05-13 17:16:00,
2013-05-13 10:22:00,77.5,43.0,27.40,ENE,67,3.3,3.7,29,0.00,,,0.00,Rainwise IP-100,2013-05-13 17:22:00,
2013-05-13 10:27:00,77.6,42.0,27.40,East,90,2.6,7.9,28,0.00,,,0.00,Rainwise IP-100,2013-05-13 17:27:00,
2013-05-13 10:32:00,76.8,40.0,27.40,NNE,22,2.6,9.1,27,0.00,,,0.00,Rainwise IP-100,2013-05-13 17:32:00,
2013-05-13 10:37:00,76.9,40.0,27.40,ENE,67,0.0,5.8,27,0.00,,,0.00,Rainwise IP-100,2013-05-13 17:37:00,
2013-05-13 10:42:00,77.3,42.0,27.40,NE,45,5.1,6.5,28,0.00,,,0.00,Rainwise IP-100,2013-05-13 17:42:00,
2013-05-13 10:47:00,77.0,40.0,27.39,East,90,5.6,7.0,27,0.00,,,0.00,Rainwise IP-100,2013-05-13 17:47:00,
2013-05-13 10:52:00,77.2,38.0,27.40,South,180,1.6,8.4,24,0.00,,,0.00,Rainwise IP-100,2013-05-13 17:52:00,
2013-05-13 10:57:00,77.5,35.0,27.39,WNW,292,1.6,8.4,21,0.00,,,0.00,Rainwise IP-100,2013-05-13 17:57:00,
2013-05-13 11:02:00,77.9,35.0,27.39,East,90,4.0,5.4,21,0.00,,,0.00,Rainwise IP-100,2013-05-13 18:02:00,
2013-05-13 11:07:00,78.0,35.0,27.40,ESE,112,7.0,7.0,21,0.00,,,0.00,Rainwise IP-100,2013-05-13 18:07:00,
2013-05-13 11:12:00,78.3,36.0,27.40,ESE,112,4.4,7.0,21,0.00,,,0.00,Rainwise IP-100,2013-05-13 18:12:00,
2013-05-13 11:17:00,78.5,36.0,27.40,East,90,4.2,7.2,21,0.00,,,0.00,Rainwise IP-100,2013-05-13 18:17:00,
2013-05-13 11:23:00,78.2,35.0,27.40,NNW,337,0.0,9.6,20,0.00,,,0.00,Rainwise IP-100,2013-05-13 18:23:00,
2013-05-13 11:28:00,78.7,37.0,27.40,ESE,112,4.4,4.4,22,0.00,,,0.00,Rainwise IP-100,2013-05-13 18:28:00,
2013-05-13 11:33:00,78.8,38.0,27.40,ENE,67,2.6,8.9,23,0.00,,,0.00,Rainwise IP-100,2013-05-13 18:33:00,
2013-05-13 11:38:00,78.7,37.0,27.40,ENE,67,3.3,6.5,22,0.00,,,0.00,Rainwise IP-100,2013-05-13 18:38:00,
2013-05-13 11:43:00,78.9,37.0,27.40,SSE,157,2.8,9.1,22,0.00,,,0.00,Rainwise IP-100,2013-05-13 18:43:00,
2013-05-13 11:48:00,79.1,37.0,27.41,ENE,67,3.0,8.4,22,0.00,,,0.00,Rainwise IP-100,2013-05-13 18:48:00,
2013-05-13 11:53:00,79.7,36.0,27.41,East,90,8.2,8.9,21,0.00,,,0.00,Rainwise IP-100,2013-05-13 18:53:00,
2013-05-13 11:58:00,79.9,36.0,27.40,ENE,67,5.8,8.9,20,0.00,,,0.00,Rainwise IP-100,2013-05-13 18:58:00,
2013-05-13 12:03:00,79.5,32.0,27.40,East,90,2.8,7.7,18,0.00,,,0.00,Rainwise IP-100,2013-05-13 19:03:00,
2013-05-13 12:08:00,79.3,32.0,27.40,SE,135,1.2,10.0,18,0.00,,,0.00,Rainwise IP-100,2013-05-13 19:08:00,
2013-05-13 12:13:00,79.6,33.0,27.40,SSE,157,3.7,10.7,19,0.00,,,0.00,Rainwise IP-100,2013-05-13 19:13:00,
2013-05-13 12:18:00,79.8,32.0,27.40,East,90,8.4,11.2,18,0.00,,,0.00,Rainwise IP-100,2013-05-13 19:18:00,
2013-05-13 12:24:00,79.6,31.0,27.40,ESE,112,3.7,11.7,17,0.00,,,0.00,Rainwise IP-100,2013-05-13 19:24:00,
2013-05-13 12:29:00,79.5,31.0,27.40,ENE,67,4.7,10.0,17,0.00,,,0.00,Rainwise IP-100,2013-05-13 19:29:00,
2013-05-13 12:34:00,79.7,31.0,27.40,East,90,6.5,11.2,17,0.00,,,0.00,Rainwise IP-100,2013-05-13 19:34:00,
2013-05-13 12:39:00,79.9,32.0,27.40,East,90,3.7,7.9,17,0.00,,,0.00,Rainwise IP-100,2013-05-13 19:39:00,
2013-05-13 12:44:00,80.4,32.0,27.40,ESE,112,1.6,7.0,17,0.00,,,0.00,Rainwise IP-100,2013-05-13 19:44:00,
2013-05-13 12:49:00,81.0,33.0,27.39,East,90,4.9,9.6,18,0.00,,,0.00,Rainwise IP-100,2013-05-13 19:49:00,
2013-05-13 12:54:00,80.8,32.0,27.39,SSW,202,3.0,11.0,17,0.00,,,0.00,Rainwise IP-100,2013-05-13 19:54:00,
2013-05-13 12:59:00,80.4,31.0,27.40,East,90,4.2,14.9,16,0.00,,,0.00,Rainwise IP-100,2013-05-13 19:59:00,
2013-05-13 13:04:00,80.3,31.0,27.39,ESE,112,2.6,10.0,16,0.00,,,0.00,Rainwise IP-100,2013-05-13 20:04:00,
2013-05-13 13:09:00,80.5,31.0,27.39,NE,45,5.4,13.3,16,0.00,,,0.00,Rainwise IP-100,2013-05-13 20:09:00,
2013-05-13 13:14:00,80.5,32.0,27.39,East,90,11.0,11.2,17,0.00,,,0.00,Rainwise IP-100,2013-05-13 20:14:00,
2013-05-13 13:19:00,80.2,32.0,27.39,East,90,8.6,11.0,17,0.00,,,0.00,Rainwise IP-100,2013-05-13 20:19:00,
2013-05-13 13:25:00,80.1,32.0,27.39,ENE,67,5.4,12.6,17,0.00,,,0.00,Rainwise IP-100,2013-05-13 20:25:00,
2013-05-13 13:30:00,80.7,33.0,27.39,ESE,112,2.1,10.5,18,0.00,,,0.00,Rainwise IP-100,2013-05-13 20:30:00,
2013-05-13 13:35:00,81.4,37.0,27.39,East,90,3.3,9.1,20,0.00,,,0.00,Rainwise IP-100,2013-05-13 20:35:00,
2013-05-13 13:40:00,81.7,37.0,27.39,NNE,22,5.4,5.8,20,0.00,,,0.00,Rainwise IP-100,2013-05-13 20:40:00,
2013-05-13 13:45:00,82.0,37.0,27.39,North,360,1.2,10.3,20,0.00,,,0.00,Rainwise IP-100,2013-05-13 20:45:00,
2013-05-13 13:50:00,82.0,37.0,27.39,ENE,67,3.7,8.6,20,0.00,,,0.00,Rainwise IP-100,2013-05-13 20:50:00,
2013-05-13 13:55:00,81.5,36.0,27.39,ESE,112,2.6,7.5,19,0.00,,,0.00,Rainwise IP-100,2013-05-13 20:55:00,
2013-05-13 14:00:00,81.2,36.0,27.39,ESE,112,3.7,7.9,19,0.00,,,0.00,Rainwise IP-100,2013-05-13 21:00:00,
2013-05-13 14:05:00,81.7,38.0,27.39,ESE,112,8.6,8.6,21,0.00,,,0.00,Rainwise IP-100,2013-05-13 21:05:00,
2013-05-13 14:10:00,81.7,37.0,27.39,ESE,112,0.0,9.8,20,0.00,,,0.00,Rainwise IP-100,2013-05-13 21:10:00,
2013-05-13 14:15:00,81.3,36.0,27.38,East,90,1.2,6.5,19,0.00,,,0.00,Rainwise IP-100,2013-05-13 21:15:00,
2013-05-13 14:20:00,81.9,36.0,27.38,East,90,0.0,6.3,19,0.00,,,0.00,Rainwise IP-100,2013-05-13 21:20:00,
2013-05-13 14:26:00,82.5,36.0,27.38,WSW,247,3.0,7.7,19,0.00,,,0.00,Rainwise IP-100,2013-05-13 21:26:00,
2013-05-13 14:31:00,82.9,36.0,27.38,ENE,67,3.5,5.8,18,0.00,,,0.00,Rainwise IP-100,2013-05-13 21:31:00,
2013-05-13 14:36:00,83.2,35.0,27.38,WSW,247,1.6,7.0,17,0.00,,,0.00,Rainwise IP-100,2013-05-13 21:36:00,
2013-05-13 14:41:00,82.9,33.0,27.38,East,90,5.1,8.4,17,0.00,,,0.00,Rainwise IP-100,2013-05-13 21:41:00,
2013-05-13 14:46:00,82.1,32.0,27.37,East,90,4.4,11.9,16,0.00,,,0.00,Rainwise IP-100,2013-05-13 21:46:00,
2013-05-13 14:51:00,81.8,31.0,27.38,SSE,157,0.0,9.3,16,0.00,,,0.00,Rainwise IP-100,2013-05-13 21:51:00,
2013-05-13 14:56:00,82.1,33.0,27.37,ENE,67,3.0,6.3,17,0.00,,,0.00,Rainwise IP-100,2013-05-13 21:56:00,
2013-05-13 15:01:00,82.3,33.0,27.38,East,90,3.5,6.3,17,0.00,,,0.00,Rainwise IP-100,2013-05-13 22:01:00,
2013-05-13 15:06:00,82.4,33.0,27.37,ESE,112,2.6,4.4,17,0.00,,,0.00,Rainwise IP-100,2013-05-13 22:06:00,
2013-05-13 15:11:00,82.0,35.0,27.36,ENE,67,0.0,9.3,18,0.00,,,0.00,Rainwise IP-100,2013-05-13 22:11:00,
2013-05-13 15:16:00,82.0,35.0,27.37,ESE,112,6.1,11.4,18,0.00,,,0.00,Rainwise IP-100,2013-05-13 22:16:00,
2013-05-13 15:21:00,82.1,35.0,27.36,ESE,112,1.4,9.1,18,0.00,,,0.00,Rainwise IP-100,2013-05-13 22:21:00,
2013-05-13 15:27:00,82.0,35.0,27.36,ENE,67,4.0,8.2,18,0.00,,,0.00,Rainwise IP-100,2013-05-13 22:27:00,
2013-05-13 15:32:00,82.0,35.0,27.36,East,90,6.5,9.1,18,0.00,,,0.00,Rainwise IP-100,2013-05-13 22:32:00,
2013-05-13 15:37:00,81.7,33.0,27.36,ENE,67,3.5,9.1,17,0.00,,,0.00,Rainwise IP-100,2013-05-13 22:37:00,
2013-05-13 15:42:00,81.7,31.0,27.36,East,90,2.1,7.5,16,0.00,,,0.00,Rainwise IP-100,2013-05-13 22:42:00,
2013-05-13 15:47:00,82.2,32.0,27.35,East,90,2.1,4.7,16,0.00,,,0.00,Rainwise IP-100,2013-05-13 22:47:00,
2013-05-13 15:52:00,82.4,32.0,27.35,ESE,112,4.2,10.5,16,0.00,,,0.00,Rainwise IP-100,2013-05-13 22:52:00,
2013-05-13 15:57:00,81.9,32.0,27.35,East,90,4.7,9.3,16,0.00,,,0.00,Rainwise IP-100,2013-05-13 22:57:00,
2013-05-13 16:02:00,81.8,31.0,27.35,ENE,67,0.0,7.5,16,0.00,,,0.00,Rainwise IP-100,2013-05-13 23:02:00,
2013-05-13 16:07:00,81.9,31.0,27.34,ENE,67,2.1,11.0,15,0.00,,,0.00,Rainwise IP-100,2013-05-13 23:07:00,
2013-05-13 16:12:00,81.9,31.0,27.34,ESE,112,4.0,6.3,15,0.00,,,0.00,Rainwise IP-100,2013-05-13 23:12:00,
2013-05-13 16:17:00,82.1,32.0,27.34,ENE,67,4.4,9.3,16,0.00,,,0.00,Rainwise IP-100,2013-05-13 23:17:00,
2013-05-13 16:22:00,82.1,32.0,27.34,ESE,112,0.0,6.8,16,0.00,,,0.00,Rainwise IP-100,2013-05-13 23:22:00,
2013-05-13 16:28:00,82.2,32.0,27.34,SSE,157,2.6,4.9,16,0.00,,,0.00,Rainwise IP-100,2013-05-13 23:28:00,
2013-05-13 16:33:00,82.4,32.0,27.33,WSW,247,1.2,7.9,16,0.00,,,0.00,Rainwise IP-100,2013-05-13 23:33:00,
2013-05-13 16:38:00,82.4,33.0,27.33,NNW,337,0.0,5.8,17,0.00,,,0.00,Rainwise IP-100,2013-05-13 23:38:00,
2013-05-13 16:43:00,82.1,33.0,27.33,SE,135,2.8,7.7,17,0.00,,,0.00,Rainwise IP-100,2013-05-13 23:43:00,
2013-05-13 16:48:00,81.9,33.0,27.33,East,90,4.9,7.5,17,0.00,,,0.00,Rainwise IP-100,2013-05-13 23:48:00,
2013-05-13 16:53:00,81.8,31.0,27.32,ENE,67,4.7,11.0,16,0.00,,,0.00,Rainwise IP-100,2013-05-13 23:53:00,
2013-05-13 16:58:00,81.6,31.0,27.32,ENE,67,4.2,8.2,16,0.00,,,0.00,Rainwise IP-100,2013-05-13 23:58:00,
2013-05-13 17:03:00,81.4,32.0,27.32,ENE,67,0.0,5.4,17,0.00,,,0.00,Rainwise IP-100,2013-05-14 00:03:00,
2013-05-13 17:08:00,81.2,31.0,27.32,ENE,67,4.7,5.1,16,0.00,,,0.00,Rainwise IP-100,2013-05-14 00:08:00,
2013-05-13 17:13:00,80.9,32.0,27.32,NNE,22,2.6,7.5,17,0.00,,,0.00,Rainwise IP-100,2013-05-14 00:13:00,
2013-05-13 17:18:00,80.5,33.0,27.32,East,90,3.5,3.5,18,0.00,,,0.00,Rainwise IP-100,2013-05-14 00:18:00,
2013-05-13 17:23:00,80.4,33.0,27.32,East,90,0.0,7.0,18,0.00,,,0.00,Rainwise IP-100,2013-05-14 00:23:00,
2013-05-13 17:29:00,80.3,33.0,27.32,ESE,112,1.4,5.1,18,0.00,,,0.00,Rainwise IP-100,2013-05-14 00:29:00,
2013-05-13 17:34:00,80.1,33.0,27.32,ENE,67,4.7,6.1,18,0.00,,,0.00,Rainwise IP-100,2013-05-14 00:34:00,
2013-05-13 17:39:00,79.8,32.0,27.32,NNE,22,1.6,5.4,18,0.00,,,0.00,Rainwise IP-100,2013-05-14 00:39:00,
2013-05-13 17:44:00,79.4,32.0,27.32,ENE,67,3.0,4.9,18,0.00,,,0.00,Rainwise IP-100,2013-05-14 00:44:00,
2013-05-13 17:49:00,79.4,32.0,27.32,NE,45,1.2,4.9,18,0.00,,,0.00,Rainwise IP-100,2013-05-14 00:49:00,
2013-05-13 17:54:00,79.2,33.0,27.31,ENE,67,0.0,4.2,19,0.00,,,0.00,Rainwise IP-100,2013-05-14 00:54:00,
2013-05-13 17:59:00,78.7,33.0,27.31,NNE,22,2.1,3.3,19,0.00,,,0.00,Rainwise IP-100,2013-05-14 00:59:00,
2013-05-13 18:04:00,78.7,35.0,27.31,East,90,0.0,5.6,20,0.00,,,0.00,Rainwise IP-100,2013-05-14 01:04:00,
2013-05-13 18:09:00,78.4,35.0,27.31,NNW,337,1.9,2.3,20,0.00,,,0.00,Rainwise IP-100,2013-05-14 01:09:00,
2013-05-13 18:14:00,77.6,35.0,27.30,NNE,22,0.0,3.0,21,0.00,,,0.00,Rainwise IP-100,2013-05-14 01:14:00,
2013-05-13 18:20:00,77.1,36.0,27.31,NNW,337,0.0,2.8,22,0.00,,,0.00,Rainwise IP-100,2013-05-14 01:20:00,
2013-05-13 18:25:00,76.9,37.0,27.31,NNW,337,1.2,1.9,23,0.00,,,0.00,Rainwise IP-100,2013-05-14 01:25:00,
2013-05-13 18:30:00,76.6,37.0,27.30,ENE,67,0.0,4.0,24,0.00,,,0.00,Rainwise IP-100,2013-05-14 01:30:00,
2013-05-13 18:35:00,76.4,37.0,27.30,ENE,67,0.0,1.9,24,0.00,,,0.00,Rainwise IP-100,2013-05-14 01:35:00,
2013-05-13 18:40:00,76.0,38.0,27.30,NE,45,0.0,1.2,25,0.00,,,0.00,Rainwise IP-100,2013-05-14 01:40:00,
2013-05-13 18:45:00,75.7,38.0,27.30,NNW,337,0.0,1.6,26,0.00,,,0.00,Rainwise IP-100,2013-05-14 01:45:00,
2013-05-13 18:50:00,75.3,39.0,27.30,NNW,337,0.0,1.9,27,0.00,,,0.00,Rainwise IP-100,2013-05-14 01:50:00,
2013-05-13 18:55:00,75.1,40.0,27.30,East,90,0.0,2.8,28,0.00,,,0.00,Rainwise IP-100,2013-05-14 01:55:00,
2013-05-13 19:00:00,74.8,39.0,27.30,East,90,0.0,1.2,28,0.00,,,0.00,Rainwise IP-100,2013-05-14 02:00:00,
2013-05-13 19:05:00,74.3,40.0,27.30,East,90,0.0,0.0,29,0.00,,,0.00,Rainwise IP-100,2013-05-14 02:05:00,
2013-05-13 19:10:00,73.8,40.0,27.30,East,90,0.0,0.0,30,0.00,,,0.00,Rainwise IP-100,2013-05-14 02:10:00,
2013-05-13 19:15:00,73.4,41.0,27.30,East,90,0.0,1.2,31,0.00,,,0.00,Rainwise IP-100,2013-05-14 02:15:00,
2013-05-13 19:21:00,72.9,41.0,27.30,East,90,0.0,0.0,32,0.00,,,0.00,Rainwise IP-100,2013-05-14 02:21:00,
2013-05-13 19:26:00,72.6,41.0,27.30,East,90,0.0,0.0,32,0.00,,,0.00,Rainwise IP-100,2013-05-14 02:26:00,
2013-05-13 19:31:00,72.2,41.0,27.30,East,90,0.0,0.0,33,0.00,,,0.00,Rainwise IP-100,2013-05-14 02:31:00,
2013-05-13 19:36:00,71.8,42.0,27.30,East,90,0.0,0.0,34,0.00,,,0.00,Rainwise IP-100,2013-05-14 02:36:00,
2013-05-13 19:41:00,71.4,41.0,27.30,East,90,0.0,0.0,34,0.00,,,0.00,Rainwise IP-100,2013-05-14 02:41:00,
2013-05-13 19:46:00,70.9,42.0,27.30,East,90,0.0,0.0,35,0.00,,,0.00,Rainwise IP-100,2013-05-14 02:46:00,
2013-05-13 19:51:00,70.3,41.0,27.30,East,90,0.0,0.0,35,0.00,,,0.00,Rainwise IP-100,2013-05-14 02:51:00,
2013-05-13 19:56:00,69.8,41.0,27.31,East,90,0.0,0.0,36,0.00,,,0.00,Rainwise IP-100,2013-05-14 02:56:00,
2013-05-13 20:01:00,69.2,42.0,27.31,East,90,0.0,0.0,37,0.00,,,0.00,Rainwise IP-100,2013-05-14 03:01:00,
2013-05-13 20:06:00,68.6,42.0,27.30,East,90,0.0,0.0,38,0.00,,,0.00,Rainwise IP-100,2013-05-14 03:06:00,
2013-05-13 20:11:00,68.0,42.0,27.30,East,90,0.0,0.0,39,0.00,,,0.00,Rainwise IP-100,2013-05-14 03:11:00,
2013-05-13 20:16:00,67.4,42.0,27.30,East,90,0.0,0.0,40,0.00,,,0.00,Rainwise IP-100,2013-05-14 03:16:00,
2013-05-13 20:22:00,66.7,43.0,27.30,East,90,0.0,0.0,42,0.00,,,0.00,Rainwise IP-100,2013-05-14 03:22:00,
2013-05-13 20:27:00,65.9,43.0,27.31,East,90,0.0,0.0,44,0.00,,,0.00,Rainwise IP-100,2013-05-14 03:27:00,
2013-05-13 20:32:00,65.3,43.0,27.30,East,90,0.0,0.0,44,0.00,,,0.00,Rainwise IP-100,2013-05-14 03:32:00,
2013-05-13 20:37:00,64.9,43.0,27.31,East,90,0.0,0.0,45,0.00,,,0.00,Rainwise IP-100,2013-05-14 03:37:00,
2013-05-13 20:42:00,64.6,44.0,27.31,East,90,0.0,0.0,47,0.00,,,0.00,Rainwise IP-100,2013-05-14 03:42:00,
2013-05-13 20:47:00,64.8,44.0,27.31,ENE,67,0.0,0.0,47,0.00,,,0.00,Rainwise IP-100,2013-05-14 03:47:00,
2013-05-13 20:52:00,65.4,44.0,27.32,NE,45,0.0,1.2,46,0.00,,,0.00,Rainwise IP-100,2013-05-14 03:52:00,
2013-05-13 20:57:00,65.7,43.0,27.31,NE,45,0.0,1.6,45,0.00,,,0.00,Rainwise IP-100,2013-05-14 03:57:00,
2013-05-13 21:01:00,65.6,43.0,27.31,NE,45,0.0,1.6,45,0.00,,,0.00,Rainwise IP-100,2013-05-14 04:01:00,
2013-05-13 21:02:00,65.5,43.0,27.31,NE,45,0.0,1.4,45,0.00,,,0.00,Rainwise IP-100,2013-05-14 04:02:00,
2013-05-13 21:05:00,65.4,44.0,27.31,NE,45,0.0,0.0,46,0.00,,,0.00,Rainwise IP-100,2013-05-14 04:05:00,
2013-05-13 21:06:00,65.3,44.0,27.32,NE,45,0.0,0.0,46,0.00,,,0.00,Rainwise IP-100,2013-05-14 04:06:00,
2013-05-13 21:10:00,65.1,45.0,27.31,NE,45,0.0,0.0,48,0.00,,,0.00,Rainwise IP-100,2013-05-14 04:10:00,
2013-05-13 21:15:00,64.7,45.0,27.31,NE,45,0.0,0.0,49,0.00,,,0.00,Rainwise IP-100,2013-05-14 04:15:00,
2013-05-13 21:21:00,64.1,45.0,27.31,NE,45,0.0,0.0,50,0.00,,,0.00,Rainwise IP-100,2013-05-14 04:21:00,
2013-05-13 21:26:00,63.7,46.0,27.32,NE,45,0.0,0.0,52,0.00,,,0.00,Rainwise IP-100,2013-05-14 04:26:00,
2013-05-13 21:31:00,63.4,47.0,27.31,NE,45,2.1,2.1,54,0.00,,,0.00,Rainwise IP-100,2013-05-14 04:31:00,
2013-05-13 21:36:00,63.4,47.0,27.31,NE,45,2.3,2.3,55,0.00,,,0.00,Rainwise IP-100,2013-05-14 04:36:00,
2013-05-13 21:41:00,63.5,47.0,27.32,NNE,22,1.9,2.3,54,0.00,,,0.00,Rainwise IP-100,2013-05-14 04:41:00,
2013-05-13 21:46:00,63.4,46.0,27.32,NNE,22,2.1,2.3,53,0.00,,,0.00,Rainwise IP-100,2013-05-14 04:46:00,
2013-05-13 21:51:00,63.1,46.0,27.32,NNE,22,2.3,2.3,54,0.00,,,0.00,Rainwise IP-100,2013-05-14 04:51:00,
2013-05-13 21:56:00,62.9,47.0,27.32,North,360,2.8,3.0,55,0.00,,,0.00,Rainwise IP-100,2013-05-14 04:56:00,
2013-05-13 22:01:00,63.1,47.0,27.32,NNW,337,2.6,3.0,55,0.00,,,0.00,Rainwise IP-100,2013-05-14 05:01:00,
2013-05-13 22:06:00,63.3,46.0,27.31,NNW,337,2.1,3.0,53,0.00,,,0.00,Rainwise IP-100,2013-05-14 05:06:00,
2013-05-13 22:11:00,63.1,45.0,27.32,NNW,337,2.3,2.3,52,0.00,,,0.00,Rainwise IP-100,2013-05-14 05:11:00,
2013-05-13 22:16:00,62.8,45.0,27.32,NNW,337,2.1,2.6,52,0.00,,,0.00,Rainwise IP-100,2013-05-14 05:16:00,
2013-05-13 22:22:00,62.4,46.0,27.32,NNW,337,2.6,2.6,55,0.00,,,0.00,Rainwise IP-100,2013-05-14 05:22:00,
2013-05-13 22:27:00,62.1,47.0,27.31,NNW,337,1.9,2.6,57,0.00,,,0.00,Rainwise IP-100,2013-05-14 05:27:00,
2013-05-13 22:32:00,61.9,47.0,27.31,NNW,337,1.2,2.3,58,0.00,,,0.00,Rainwise IP-100,2013-05-14 05:32:00,
2013-05-13 22:37:00,61.9,47.0,27.31,NNW,337,1.4,1.6,58,0.00,,,0.00,Rainwise IP-100,2013-05-14 05:37:00,
2013-05-13 22:42:00,62.1,47.0,27.30,NNW,337,1.9,2.1,58,0.00,,,0.00,Rainwise IP-100,2013-05-14 05:42:00,
2013-05-13 22:47:00,61.7,47.0,27.31,NNW,337,2.6,2.6,58,0.00,,,0.00,Rainwise IP-100,2013-05-14 05:47:00,
2013-05-13 22:52:00,61.1,47.0,27.30,NNW,337,2.8,3.5,59,0.00,,,0.00,Rainwise IP-100,2013-05-14 05:52:00,
2013-05-13 22:57:00,61.0,46.0,27.31,NNW,337,2.8,3.3,58,0.00,,,0.00,Rainwise IP-100,2013-05-14 05:57:00,
2013-05-13 23:02:00,60.9,46.0,27.30,NNW,337,2.8,3.0,58,0.00,,,0.00,Rainwise IP-100,2013-05-14 06:02:00,
2013-05-13 23:07:00,60.9,46.0,27.31,NNW,337,2.8,2.8,58,0.00,,,0.00,Rainwise IP-100,2013-05-14 06:07:00,
2013-05-13 23:12:00,61.0,46.0,27.30,NNW,337,2.6,3.0,58,0.00,,,0.00,Rainwise IP-100,2013-05-14 06:12:00,
2013-05-13 23:17:00,61.1,46.0,27.30,NNW,337,2.6,2.8,57,0.00,,,0.00,Rainwise IP-100,2013-05-14 06:17:00,
2013-05-13 23:23:00,61.3,46.0,27.30,NNW,337,2.8,3.0,57,0.00,,,0.00,Rainwise IP-100,2013-05-14 06:23:00,
2013-05-13 23:28:00,61.5,46.0,27.30,NNW,337,2.6,2.8,56,0.00,,,0.00,Rainwise IP-100,2013-05-14 06:28:00,
2013-05-13 23:33:00,61.7,46.0,27.30,NNW,337,2.3,2.8,56,0.00,,,0.00,Rainwise IP-100,2013-05-14 06:33:00,
2013-05-13 23:38:00,61.7,46.0,27.29,NNW,337,2.8,3.3,56,0.00,,,0.00,Rainwise IP-100,2013-05-14 06:38:00,
2013-05-13 23:43:00,61.6,46.0,27.29,NNW,337,2.8,3.3,56,0.00,,,0.00,Rainwise IP-100,2013-05-14 06:43:00,
2013-05-13 23:48:00,61.5,46.0,27.29,NNW,337,2.8,3.5,56,0.00,,,0.00,Rainwise IP-100,2013-05-14 06:48:00,
2013-05-13 23:53:00,61.1,46.0,27.29,NNW,337,2.6,3.0,57,0.00,,,0.00,Rainwise IP-100,2013-05-14 06:53:00,
2013-05-13 23:58:00,60.8,46.0,27.29,NNW,337,2.6,3.0,57,0.00,,,0.00,Rainwise IP-100,2013-05-14 06:58:00,